User: anonymous   Login
Location: PACMO
(41.3967°N, 90.3760°W)
Time: 02:37:43
(UTC-05:00)
Language:

NOAA 19 - Orbit

View from above orbital plane
View from above orbital plane
View from above satellite
View from above satellite

Ground track
Ground track

The orbit data is extracted from the following two-line orbital elements,

1 33591U 09005A   15239.45438876  .00000097  00000-0  77529-4 0  9990
2 33591 098.9955 189.5251 0013640 333.8494 026.1987 14.11970160337542
Epoch (UTC): 27 August 2015 10:54:19
Eccentricity: 0.0013640
inclination: 98.9955°
perigee height: 843 km
apogee height: 862 km
right ascension of ascending node: 189.5251°
argument of perigee: 333.8494°
revolutions per day: 14.11970160
mean anomaly at epoch: 26.1987°
orbit number at epoch: 33754

The dashed part of the orbit path shows where the satellite is in the earth's shadow,  

DLR